Hot Springs, AR

8:42 AM CDT on April 24, 2018 (GMT -0500)
Hot Springs Memorial

Weather History for KHOT - October, 2012

Change the Weather History Date:

Monday, October 8, 2012

  Actual Average Record
Temperature  
Mean Temperature 54 °F -  
Max Temperature 62 °F 75 °F 97 °F (1963)
Min Temperature 46 °F 51 °F 36 °F (1952)
Degree Days  
Heating Degree Days 12    
Growing Degree Days 4 (Base 50)    
Moisture  
Dew Point 41 °F    
Average Humidity 68    
Maximum Humidity 83    
Minimum Humidity 42    
Precipitation  
Precipitation 0.00 in - - ()
Sea Level Pressure  
Sea Level Pressure 30.20 in    
Wind  
Wind Speed 1 mph (SE)    
Max Wind Speed 6 mph    
Max Gust Speed -    
Visibility 9 miles    
Events Rain    
Averages and records for this station are not official NWS values.
T = Trace of Precipitation, MM = Missing Value Source: NWS Daily Summary

Daily Weather History Graph

Daily Weather History Graph

Search for Another Location

Airport or City:

Astronomy

Oct. 08, 2012 Rise Set
Actual Time 7:12 AM CDT 6:46 PM CDT
Civil Twilight 6:47 AM CDT 7:11 PM CDT
Nautical Twilight 6:18 AM CDT 7:40 PM CDT
Astronomical Twilight 5:49 AM CDT 8:09 PM CDT
Moon 12:09 AM CDT (10/8) 2:20 PM CDT (10/8)
Length of Visible Light 12h 23m
Length of Day
11h 33m
Last Quarter, 46% of the Moon is Illuminated
Oct 8
Last Quarter
Oct 15
New
Oct 21
First Quarter
Oct 29
Full
Nov 6
Last Quarter

Hourly Weather History & Observations

Time (CDT) Temp. Dew Point Humidity Pressure Visibility Wind Dir Wind Speed Gust Speed Precip Events Conditions
12:53 AM 50.0 °F 44.1 °F 80% 30.22 in 10.0 mi Calm Calm - N/A   Overcast
1:53 AM 50.0 °F 43.0 °F 77% 30.23 in 9.0 mi Calm Calm - 0.00 in Rain Light Rain
2:53 AM 48.9 °F 42.1 °F 77% 30.22 in 10.0 mi Calm Calm - 0.00 in   Overcast
3:18 AM 48.2 °F 42.8 °F 82% 30.23 in 1.8 mi Calm Calm - N/A   Haze
3:30 AM 48.2 °F 42.8 °F 82% 30.23 in 2.5 mi Calm Calm - N/A   Haze
3:41 AM 48.2 °F 42.8 °F 82% 30.22 in 9.0 mi Calm Calm - N/A   Overcast
3:53 AM 48.9 °F 42.1 °F 77% 30.22 in 7.0 mi Calm Calm - N/A   Overcast
4:53 AM 48.0 °F 42.1 °F 80% 30.23 in 10.0 mi Calm Calm - N/A   Overcast
5:53 AM 48.0 °F 42.1 °F 80% 30.22 in 10.0 mi ENE 3.5 mph - N/A   Overcast
6:53 AM 48.0 °F 42.1 °F 80% 30.24 in 10.0 mi Calm Calm - N/A   Overcast
7:53 AM 46.9 °F 42.1 °F 83% 30.25 in 10.0 mi Calm Calm - N/A   Overcast
8:53 AM 48.9 °F 42.1 °F 77% 30.26 in 10.0 mi ENE 3.5 mph - N/A   Clear
9:53 AM 53.1 °F 39.0 °F 59% 30.27 in 10.0 mi Variable 4.6 mph - N/A   Clear
10:53 AM 55.0 °F 39.0 °F 55% 30.26 in 10.0 mi SSW 3.5 mph - N/A   Partly Cloudy
11:53 AM 57.0 °F 39.9 °F 53% 30.25 in 10.0 mi Variable 4.6 mph - N/A   Mostly Cloudy
12:53 PM 59.0 °F 39.0 °F 48% 30.22 in 10.0 mi Variable 3.5 mph - N/A   Overcast
1:53 PM 59.0 °F 37.9 °F 46% 30.19 in 10.0 mi Calm Calm - N/A   Mostly Cloudy
2:53 PM 59.0 °F 37.9 °F 46% 30.17 in 10.0 mi Calm Calm - N/A   Partly Cloudy
3:53 PM 61.0 °F 37.9 °F 42% 30.16 in 10.0 mi SE 3.5 mph - N/A   Clear
4:53 PM 61.0 °F 39.0 °F 44% 30.14 in 10.0 mi South 5.8 mph - N/A   Partly Cloudy
5:53 PM 60.1 °F 39.9 °F 47% 30.13 in 10.0 mi South 5.8 mph - N/A   Partly Cloudy
6:53 PM 57.0 °F 41.0 °F 55% 30.13 in 10.0 mi South 3.5 mph - N/A   Clear
7:53 PM 55.0 °F 42.1 °F 62% 30.13 in 10.0 mi SE 4.6 mph - N/A   Clear
8:53 PM 50.0 °F 43.0 °F 77% 30.14 in 10.0 mi East 5.8 mph - N/A   Clear
9:53 PM 48.9 °F 43.0 °F 80% 30.14 in 10.0 mi East 3.5 mph - N/A   Clear
10:53 PM 48.9 °F 42.1 °F 77% 30.15 in 10.0 mi SE 3.5 mph - N/A   Clear
11:53 PM 46.9 °F 41.0 °F 80% 30.14 in 10.0 mi ESE 3.5 mph - N/A   Clear